Location: Juiz de Fora
(21.7500°S, 43.3330°W)
Time: 06:01:51
(UTC-03:00)

Hubble Space Telescope - Pass Details

Date: 23 June 2024
Orbit: 510 x 513 km, 28.5° (Epoch: 17 July)

Event Time Altitude Azimuth Distance (km) Brightness Sun altitude
Rises 19:28:30 0° 255° (WSW) 2,626 5.1 -28.9°
Reaches altitude 10° 19:30:56 10° 244° (WSW) 1,740 3.9 -29.4°
Enters shadow 19:32:01 16° 234° (SW) 1,390 3.2 -29.6°
